Bangkok (Suvarnabhumi), Thailand

6:51 PM +07 on December 16, 2019 (GMT +0700)
Bangkok (Suvarnabhumi)

Weather History for VTBS - October, 2019

Change the Weather History Date:

Wednesday, October 16, 2019

  Actual Average (WUND) Record (WUND)
Temperature  
Mean Temperature 86 °F -  
Max Temperature 94 °F 89 °F - (-1)
Min Temperature 77 °F 73 °F - (-1)
Cooling Degree Days 20    
Growing Degree Days 36 (Base 50)    
Moisture  
Dew Point 75 °F    
Average Humidity 71    
Maximum Humidity 89    
Minimum Humidity 51    
Precipitation  
Precipitation 0.00 in 0.18 in - ()
Sea Level Pressure  
Sea Level Pressure 29.85 in    
Wind  
Wind Speed 6 mph ()    
Max Wind Speed 15 mph    
Max Gust Speed 23 mph    
Visibility 5.8 miles    
Events      
Averages and records for this station are not official NWS values.
T = Trace of Precipitation, MM = Missing Value Source: Averaged Metar Reports

Daily Weather History Graph

Daily Weather History Graph

Search for Another Location

Airport or City:

Astronomy

Oct. 16, 2019 Rise Set
Actual Time 6:06 AM +07 5:56 PM +07
Civil Twilight 5:45 AM +07 6:18 PM +07
Nautical Twilight 5:20 AM +07 6:42 PM +07
Astronomical Twilight 4:55 AM +07 7:07 PM +07
Moon 7:48 PM +07 7:52 AM +07
Length of Visible Light 12h 32m
Length of Day
11h 50m
Waning Gibbous, 95% of the Moon is Illuminated
Oct 16
Waning Gibbous
Oct 21
Last Quarter
Oct 28
New
Nov 4
First Quarter
Nov 12
Full

Hourly Weather History & Observations

Time (+07) Temp. Heat Index Dew Point Humidity Pressure Visibility Wind Dir Wind Speed Gust Speed Precip Events Conditions
12:00 AM 82.4 °F 89.5 °F 75.2 °F 79% 29.89 in 5.6 mi ENE 3.5 mph - N/A   Partly Cloudy
1:00 AM 81 °F - 77 °F 83% 29.87 in 2 mi NE 4.6 mph - -   Mist
1:00 AM 82.4 °F 89.5 °F 75.2 °F 79% 29.89 in 5.6 mi NE 5.8 mph - N/A   Mostly Cloudy
1:30 AM 82.4 °F 89.5 °F 75.2 °F 79% 29.86 in 5.6 mi ENE 6.9 mph - N/A   Mostly Cloudy
3:00 AM 80.6 °F 86.2 °F 75.2 °F 84% 29.86 in 5.6 mi ENE 5.8 mph - N/A   Partly Cloudy
3:30 AM 80.6 °F 86.2 °F 75.2 °F 84% 29.86 in 5.6 mi NE 5.8 mph - N/A   Partly Cloudy
4:00 AM 80.6 °F 86.2 °F 75.2 °F 84% 29.86 in 5.6 mi NNE 4.6 mph - N/A   Partly Cloudy
4:30 AM 78.8 °F - 75.2 °F 89% 29.86 in 5.6 mi ENE 4.6 mph - N/A   Partly Cloudy
5:00 AM 78.8 °F - 75.2 °F 89% 29.86 in 5.0 mi NE 5.8 mph - N/A   Partly Cloudy
5:30 AM 78.8 °F - 75.2 °F 89% 29.86 in 5.0 mi North 3.5 mph - N/A   Partly Cloudy
6:00 AM 78.8 °F - 75.2 °F 89% 29.86 in 5.0 mi NE 5.8 mph - N/A   Unknown
6:30 AM 78.8 °F - 75.2 °F 89% 29.89 in 5.0 mi NW 3.5 mph - N/A   Unknown
7:00 AM 80 °F - 76 °F 86% 29.88 in 2 mi East 3.5 mph - -   Mist
7:30 AM 82.4 °F 90.9 °F 77.0 °F 84% 29.89 in - NE 5.8 mph - N/A   Clear
8:00 AM 82.4 °F 89.5 °F 75.2 °F 79% 29.89 in - NE 9.2 mph - N/A   Clear
8:30 AM 84.2 °F 92.3 °F 75.2 °F 74% 29.92 in 6.2 mi NE 10.4 mph - N/A   Partly Cloudy
9:00 AM 86.0 °F 95.1 °F 75.2 °F 70% 29.92 in 6.2 mi NE 9.2 mph - N/A   Partly Cloudy
9:30 AM 87.8 °F 95.6 °F 73.4 °F 62% 29.92 in 6.2 mi ENE 9.2 mph - N/A   Partly Cloudy
10:00 AM 90 °F - 76 °F 55% 29.91 in 7 mi NE 3.5 mph - -   Scattered Clouds
10:30 AM 87.8 °F 95.6 °F 73.4 °F 62% 29.92 in 6.2 mi ENE 10.4 mph 21.9 mph N/A   Partly Cloudy
11:00 AM 89.6 °F 99.8 °F 75.2 °F 62% 29.92 in 6.2 mi NE 11.5 mph - N/A   Partly Cloudy
11:30 AM 91.4 °F 102.5 °F 75.2 °F 59% 29.89 in 6.2 mi NE 12.7 mph - N/A   Partly Cloudy
12:00 PM 91.4 °F 102.5 °F 75.2 °F 59% 29.89 in 6.2 mi ENE 12.7 mph - N/A   Partly Cloudy
1:00 PM 93 °F - 77 °F 51% 29.83 in 7 mi NNE 5.8 mph - -   Scattered Clouds
1:00 PM 89.6 °F 99.8 °F 75.2 °F 62% 29.86 in 6.2 mi East 10.4 mph - N/A   Partly Cloudy
1:30 PM 91.4 °F 100.1 °F 73.4 °F 55% 29.83 in 6.2 mi ENE 15.0 mph - N/A   Partly Cloudy
2:00 PM 91.4 °F 102.5 °F 75.2 °F 59% 29.80 in 6.2 mi ENE 12.7 mph - N/A   Partly Cloudy
2:30 PM 93.2 °F 105.0 °F 75.2 °F 56% 29.80 in 6.2 mi ENE 13.8 mph - N/A   Partly Cloudy
3:00 PM 93.2 °F 105.0 °F 75.2 °F 56% 29.80 in 6.2 mi ENE 11.5 mph - N/A   Partly Cloudy
3:30 PM 91.4 °F 102.5 °F 75.2 °F 59% 29.77 in 6.2 mi NE 8.1 mph 19.6 mph N/A   Partly Cloudy
4:00 PM 93 °F - 78 °F 54% 29.77 in 7 mi North 8.1 mph - -   Scattered Clouds
4:00 PM 91.4 °F 102.5 °F 75.2 °F 59% 29.77 in 6.2 mi ENE 10.4 mph 23.0 mph N/A   Partly Cloudy
4:30 PM 89.6 °F 99.8 °F 75.2 °F 62% 29.77 in 6.2 mi ENE 9.2 mph - N/A   Partly Cloudy
5:00 PM 89.6 °F 99.8 °F 75.2 °F 62% 29.77 in 6.2 mi ENE 10.4 mph - N/A   Partly Cloudy
6:00 PM 87.8 °F 95.6 °F 73.4 °F 62% 29.80 in 5.6 mi NE 9.2 mph - N/A   Partly Cloudy
6:30 PM 87.8 °F 97.6 °F 75.2 °F 66% 29.80 in 5.6 mi NE 9.2 mph - N/A   Partly Cloudy
7:00 PM 87 °F - 79 °F 70% 29.82 in 6 mi NE 2.3 mph - -   Clear
7:00 PM 86.0 °F 93.4 °F 73.4 °F 66% 29.83 in 5.6 mi ENE 6.9 mph - N/A   Partly Cloudy
7:30 PM 86.0 °F 95.1 °F 75.2 °F 70% 29.83 in 5.6 mi ENE 8.1 mph - N/A   Partly Cloudy
8:00 PM 86.0 °F 95.1 °F 75.2 °F 70% 29.83 in 5.6 mi NE 6.9 mph - N/A   Partly Cloudy
8:30 PM 86.0 °F 95.1 °F 75.2 °F 70% 29.86 in 6.2 mi NE 8.1 mph - N/A   Partly Cloudy
9:00 PM 86.0 °F 95.1 °F 75.2 °F 70% 29.86 in 6.2 mi ENE 5.8 mph - N/A   Partly Cloudy
9:30 PM 86.0 °F 95.1 °F 75.2 °F 70% 29.86 in 6.2 mi ENE 6.9 mph - N/A   Partly Cloudy
10:00 PM 85 °F - 79 °F 77% 29.87 in 6 mi Calm Calm - -   Clear
10:00 PM 86.0 °F 95.1 °F 75.2 °F 70% 29.89 in 6.2 mi ENE 5.8 mph - N/A   Partly Cloudy
10:30 PM 84.2 °F 92.3 °F 75.2 °F 74% 29.89 in 6.2 mi ENE 3.5 mph - N/A   Partly Cloudy
11:00 PM 84.2 °F 92.3 °F 75.2 °F 74% 29.86 in 6.2 mi NE 9.2 mph - N/A   Partly Cloudy
11:30 PM 84.2 °F 92.3 °F 75.2 °F 74% 29.86 in 6.2 mi NE 8.1 mph - N/A   Partly Cloudy